Weather History for Cumberland, WI

Change the Weather History Date:

Friday, March 15, 2013

  Actual Average (KRPD) Record (KRPD)
Temperature  
Mean Temperature 26 °F -  
Max Temperature 32 °F 34 °F 60 °F (2012)
Min Temperature 21 °F 17 °F -5 °F (1997)
Degree Days  
Heating Degree Days 38    
Moisture  
Dew Point 22 °F    
Average Humidity 84    
Maximum Humidity 100    
Minimum Humidity 60    
Precipitation  
Precipitation 0.00 in - - ()
Sea Level Pressure  
Sea Level Pressure 29.90 in    
Wind  
Wind Speed 6 mph (NE)    
Max Wind Speed 15 mph    
Max Gust Speed 18 mph    
Visibility 6 miles    
Events Snow    
Averages and records for this station are not official NWS values.
T = Trace of Precipitation, MM = Missing Value Source: NWS Daily Summary

Daily Weather History Graph

Daily Weather History Graph

Search for Another Location

Airport:

Trip Planner

Search our weather history database for the weather conditions in past years. The results will help you decide how hot, cold, wet, or windy it might be!

Date:

Astronomy

Mar. 15, 2013 Rise Set
Actual Time 7:19 AM CDT 7:14 PM CDT
Civil Twilight 6:50 AM CDT 7:43 PM CDT
Nautical Twilight 6:16 AM CDT 8:18 PM CDT
Astronomical Twilight 5:40 AM CDT 8:53 PM CDT
Moon 8:57 AM CDT (3/15) 11:43 PM CDT (3/15)
Length of Visible Light 12h 53m
Length of Day
11h 54m
Waxing Crescent, 15% of the Moon is Illuminated
Mar 15
Waxing Crescent
Mar 19
First Quarter
Mar 27
Full
Apr 2
Last Quarter
Apr 10
New

Hourly Weather History & Observations

Time (CDT) Temp. Windchill Dew Point Humidity Pressure Visibility Wind Dir Wind Speed Gust Speed Precip Events Conditions
12:15 AM 21.2 °F - 19.4 °F 93% 29.97 in 7.0 mi Calm Calm - N/A   Clear
12:35 AM 23.0 °F 18.4 °F 21.2 °F 93% 29.97 in 7.0 mi West 3.5 mph - N/A   Clear
1:15 AM 24.8 °F - 23.0 °F 93% 29.96 in 7.0 mi Calm Calm - N/A   Clear
1:35 AM 24.8 °F - 23.0 °F 93% 29.95 in 5.0 mi Calm Calm - N/A   Clear
1:55 AM 23.0 °F - 21.2 °F 93% 29.95 in 5.0 mi Calm Calm - N/A   Clear
2:15 AM 23.0 °F - 21.2 °F 93% 29.94 in 5.0 mi Calm Calm - N/A   Clear
2:35 AM 23.0 °F - 21.2 °F 93% 29.94 in 4.0 mi Calm Calm - N/A   Clear
2:55 AM 23.0 °F - 21.2 °F 93% 29.93 in 4.0 mi Calm Calm - N/A   Clear
3:15 AM 21.2 °F - 21.2 °F 100% 29.93 in 4.0 mi Calm Calm - N/A   Scattered Clouds
3:35 AM 23.0 °F - 21.2 °F 93% 29.93 in 4.0 mi Calm Calm - N/A   Overcast
3:55 AM 23.0 °F - 21.2 °F 93% 29.92 in 2.5 mi Calm Calm - N/A   Overcast
4:15 AM 23.0 °F - 21.2 °F 93% 29.92 in 4.0 mi Calm Calm - N/A   Overcast
4:35 AM 23.0 °F 15.8 °F 23.0 °F 100% 29.93 in 5.0 mi West 5.8 mph - N/A   Overcast
4:55 AM 24.8 °F 19.1 °F 23.0 °F 93% 29.92 in 5.0 mi West 4.6 mph - N/A   Overcast
5:15 AM 26.6 °F 21.2 °F 24.8 °F 93% 29.92 in 7.0 mi WNW 4.6 mph - N/A   Overcast
5:35 AM 28.4 °F 20.4 °F 26.6 °F 93% 29.93 in 4.0 mi NW 8.1 mph - N/A Snow Light Snow
5:55 AM 28.4 °F 19.7 °F 26.6 °F 93% 29.93 in 2.0 mi NW 9.2 mph - N/A Snow Light Snow
6:15 AM 28.4 °F 21.2 °F 26.6 °F 93% 29.93 in 1.5 mi NNW 6.9 mph - N/A Snow Light Snow
6:35 AM 28.4 °F 23.3 °F 26.6 °F 93% 29.93 in 2.0 mi North 4.6 mph - N/A Snow Light Snow
6:55 AM 28.4 °F 23.3 °F 28.4 °F 100% 29.93 in 2.5 mi North 4.6 mph - N/A Snow Light Snow
7:15 AM 28.4 °F 23.3 °F 28.4 °F 100% 29.93 in 2.0 mi North 4.6 mph - N/A Snow Light Snow
7:35 AM 28.4 °F 21.2 °F 28.4 °F 100% 29.93 in 1.2 mi NNE 6.9 mph - N/A Snow Light Snow
7:55 AM 30.2 °F 22.6 °F 28.4 °F 93% 29.92 in 1.0 mi NNE 8.1 mph - N/A Snow Light Snow
8:15 AM 30.2 °F 22.6 °F 28.4 °F 93% 29.92 in 1.5 mi NNE 8.1 mph - N/A Snow Light Snow
8:35 AM 30.2 °F 22.6 °F 28.4 °F 93% 29.92 in 2.0 mi NE 8.1 mph - N/A Snow Light Snow
8:55 AM 30.2 °F 23.4 °F 28.4 °F 93% 29.93 in 1.8 mi NNE 6.9 mph - N/A Snow Light Snow
9:15 AM 30.2 °F 21.9 °F 28.4 °F 93% 29.93 in 1.5 mi NE 9.2 mph - N/A Snow Light Snow
9:35 AM 30.2 °F 21.9 °F 28.4 °F 93% 29.93 in 1.8 mi NE 9.2 mph - N/A Snow Light Snow
10:55 AM 30.2 °F 20.2 °F 26.6 °F 86% 29.93 in 3.0 mi NE 12.7 mph - N/A Snow Light Snow
11:15 AM 30.2 °F 20.2 °F 24.8 °F 80% 29.93 in 7.0 mi NE 12.7 mph 18.4 mph N/A   Overcast
11:35 AM 30.2 °F 21.3 °F 24.8 °F 80% 29.92 in 10.0 mi NE 10.4 mph - N/A   Overcast
11:55 AM 32.0 °F 24.8 °F 24.8 °F 75% 29.92 in 10.0 mi NE 8.1 mph - N/A   Overcast
12:15 PM 32.0 °F 24.8 °F 23.0 °F 69% 29.92 in 10.0 mi NE 8.1 mph - N/A   Overcast
12:35 PM 32.0 °F 23.0 °F 23.0 °F 69% 29.92 in 10.0 mi NE 11.5 mph - N/A   Overcast
12:55 PM 32.0 °F 23.0 °F 23.0 °F 69% 29.92 in 10.0 mi NE 11.5 mph - N/A   Overcast
1:15 PM 30.2 °F 20.2 °F 21.2 °F 69% 29.93 in 10.0 mi East 12.7 mph - N/A   Overcast
1:35 PM 30.2 °F 19.8 °F 21.2 °F 69% 29.92 in 10.0 mi ENE 13.8 mph - N/A Snow Light Snow
1:55 PM 30.2 °F 20.2 °F 21.2 °F 69% 29.91 in 10.0 mi East 12.7 mph - N/A Snow Light Snow
2:15 PM 30.2 °F 21.3 °F 19.4 °F 64% 29.91 in 10.0 mi East 10.4 mph - N/A   Overcast
2:35 PM 30.2 °F 21.9 °F 19.4 °F 64% 29.90 in 10.0 mi East 9.2 mph - N/A   Overcast
2:55 PM 30.2 °F 22.6 °F 19.4 °F 64% 29.88 in 10.0 mi East 8.1 mph - N/A   Overcast
3:15 PM 30.2 °F 21.9 °F 19.4 °F 64% 29.88 in 10.0 mi East 9.2 mph - N/A   Overcast
3:35 PM 30.2 °F 21.3 °F 17.6 °F 60% 29.88 in 10.0 mi ENE 10.4 mph - N/A   Overcast
3:55 PM 30.2 °F 21.3 °F 19.4 °F 64% 29.88 in 10.0 mi ENE 10.4 mph - N/A   Overcast
4:15 PM 30.2 °F 21.9 °F 19.4 °F 64% 29.87 in 10.0 mi NE 9.2 mph - N/A   Overcast
4:35 PM 30.2 °F 21.9 °F 19.4 °F 64% 29.87 in 10.0 mi ENE 9.2 mph - N/A   Overcast
4:55 PM 30.2 °F 22.6 °F 19.4 °F 64% 29.87 in 10.0 mi NE 8.1 mph - N/A   Overcast
5:15 PM 30.2 °F 21.3 °F 17.6 °F 60% 29.86 in 10.0 mi NE 10.4 mph - N/A   Overcast
5:35 PM 30.2 °F 22.6 °F 19.4 °F 64% 29.86 in 10.0 mi ENE 8.1 mph - N/A   Overcast
5:55 PM 28.4 °F 19.7 °F 19.4 °F 69% 29.86 in 7.0 mi NE 9.2 mph - N/A   Overcast
6:15 PM 26.6 °F 16.8 °F 21.2 °F 80% 29.86 in 5.0 mi NE 10.4 mph - N/A Snow Light Snow
6:35 PM 26.6 °F 17.5 °F 21.2 °F 80% 29.86 in 1.8 mi NE 9.2 mph - N/A Snow Light Snow
6:55 PM 26.6 °F 16.8 °F 21.2 °F 80% 29.86 in 2.0 mi NE 10.4 mph - N/A Snow Light Snow
7:15 PM 24.8 °F 13.4 °F 21.2 °F 86% 29.86 in 0.8 mi NNE 12.7 mph - N/A Snow Light Snow
7:35 PM 23.0 °F 10.1 °F 21.2 °F 93% 29.86 in 1.2 mi NE 15.0 mph - N/A Snow Light Snow
7:55 PM 23.0 °F 11.1 °F 21.2 °F 93% 29.87 in 1.0 mi NNE 12.7 mph - N/A Snow Snow
8:15 PM 23.0 °F 12.4 °F 21.2 °F 93% 29.87 in 0.8 mi NNE 10.4 mph - N/A Snow Snow
8:35 PM 23.0 °F 10.6 °F 19.4 °F 86% 29.86 in 1.5 mi NNE 13.8 mph - N/A Snow Light Snow
8:55 PM 23.0 °F 11.1 °F 19.4 °F 86% 29.87 in 1.2 mi NNE 12.7 mph - N/A Snow Snow
9:15 PM 21.2 °F 8.9 °F 19.4 °F 93% 29.87 in 1.2 mi NNE 12.7 mph - N/A Snow Light Snow
9:35 PM 21.2 °F 8.9 °F 19.4 °F 93% 29.86 in 5.0 mi NE 12.7 mph 18.4 mph N/A Snow Light Snow
9:55 PM 21.2 °F 9.5 °F 19.4 °F 93% 29.86 in 7.0 mi NE 11.5 mph - N/A Snow Light Snow
10:15 PM 21.2 °F 9.5 °F 19.4 °F 93% 29.88 in 5.0 mi NE 11.5 mph - N/A Snow Light Snow
10:35 PM 21.2 °F 10.1 °F 19.4 °F 93% 29.88 in 7.0 mi NE 10.4 mph - N/A Snow Light Snow
10:55 PM 21.2 °F 9.5 °F 17.6 °F 86% 29.88 in 10.0 mi NE 11.5 mph - N/A   Overcast
11:15 PM 21.2 °F 8.9 °F 17.6 °F 86% 29.88 in 4.0 mi NNE 12.7 mph - N/A Snow Light Snow
11:35 PM 21.2 °F 10.1 °F 17.6 °F 86% 29.88 in 5.0 mi NE 10.4 mph - N/A Snow Light Snow
11:55 PM 21.2 °F 10.1 °F 17.6 °F 86% 29.88 in 7.0 mi NNE 10.4 mph - N/A Snow Light Snow